Regional Weather Roundup
Issued by NWS Midland/Odessa, TX

Skip options and go directly to product.
Home | Oldest Version | Previous Version | Current Version | All | Text Only | Save Text | Print | Product List | Glossary On

Skip product version selection by date and time.   
166
ASUS44 KMAF 041710
RWRMAF
MIDLAND AREA WEATHER ROUNDUP
NATIONAL WEATHER SERVICE MIDLAND TX
1200 PM CDT SAT JUL 04 2015

...IN SOUTHWEST TEXAS AND SOUTHEAST NEW MEXICO...

CITY           SKY/WX    TMP DP  RH WIND       PRES   REMARKS
ALPINE         PTSUNNY   82  59  45 S7        30.15S
ANDREWS        FAIR      83  64  52 SE8       30.07S
ARTESIA        SUNNY     82  64  54 SE10      30.08S
BIG SPRING     PTSUNNY   84  66  54 S10       30.07S
CARLSBAD       SUNNY     84  63  49 VRB3      30.05F
DRYDEN           N/A     80  69  69 VRB6      30.01S
FORT STOCKTON  MOSUNNY   82  66  58 SE13G21   30.04S
GUAD PASS      SUNNY     77  57  50 E17       30.19S
HOBBS          PTSUNNY   81  63  54 CALM      30.10S
MARFA          PTSUNNY  N/A N/A N/A SW5       30.15S
MIDLAND AIRPK  MOSUNNY   83  66  55 SE8       30.06S
MIDLAND INTL   PTSUNNY   81  67  62 SE8       30.05S
ODESSA         MOSUNNY   81  64  56 SE10      30.06S
PECOS          MOSUNNY   86  64  47 E8        30.01S
PRESIDIO       CLOUDY    85  63  46 CALM      30.00S
SEMINOLE       MOSUNNY   84  62  47 S8        30.09S
SNYDER         MOSUNNY   81  68  64 S6        30.06S
WINK           PTSUNNY   84  65  52 SE9G16    30.02F
$$
...OTHER STATIONS IN TEXAS...

CITY           SKY/WX    TMP DP  RH WIND       PRES   REMARKS
ABILENE        MOSUNNY   86  68  54 SW8       30.03S
AMARILLO       SUNNY     81  60  48 S10       30.08F
AUSTIN         PTSUNNY   85  73  67 S16       30.01S
BROWNSVILLE    PTSUNNY   89  77  67 SE18G28   29.98S HX 101
CORPUS CHRISTI PTSUNNY   87  75  67 SE18G26   29.99S
DALLAS FTW     MOSUNNY   89  71  55 SW10G18   29.98S
DEL RIO        PTSUNNY   83  70  64 SE12      29.97S
EL PASO        PTSUNNY   85  57  38 CALM      30.05F
HOUSTON INT    PTSUNNY   81  72  74 SE15      30.03S THUNDER
LUBBOCK        PTSUNNY   84  63  49 S9        30.07F
SAN ANGELO     MOSUNNY   85  69  58 S12       30.03S
SAN ANTONIO    PTSUNNY   85  71  63 S9        30.01S
WACO           CLOUDY    87  70  56 S14       30.01F
WICHITA FALLS  NOT AVBL
$$
...OTHER LOCATIONS IN NEW MEXICO...

CITY           SKY/WX    TMP DP  RH WIND       PRES   REMARKS
ALAMAGORDO     SUNNY     82  57  42 N3        30.10S
ALBUQUERQUE    MOSUNNY   80  56  43 S7        30.16F
CANNON AFB     MOSUNNY   79  64  61 SW6       30.11F
CLOVIS         MOSUNNY   79  64  61 W7          N/A
HOLLOMAN AFB   SUNNY     83  59  44 VRB3      30.07F
ROSWELL        SUNNY     85  61  44 S8        30.07S
RUIDOSO        SUNNY     72  55  56 S3        30.28
SANTA FE       SUNNY     77  52  41 VRB3      30.21F
TRUTH OR CONSE MOSUNNY   82  59  45 S8        30.11F
TUCUMCARI      SUNNY     84  62  47 SW12G20   30.06F
$$

USA.gov is the U.S. government's official web portal to all federal, state and local government web resources and services.